• en France
  • Liste des pays
  • À 7 jours
  • Température de l'eau
  • Carte satellitaire
  • Carte météo
  • Widgets météo
  • user-avatar
    Se connecter

    Météo par heure à Linz

    Ce jour, 17 Octobre, Mercredi

    Heure Température Précipitation Vent Pression Humidité
    00:00 +12°C° 0 mm 1 m/s 736 mmHg 82%
    01:00 +12°C° 0 mm 1 m/s 736 mmHg 83%
    02:00 +12°C° 0 mm 1 m/s 736 mmHg 83%
    03:00 +12°C° 0 mm 1 m/s 736 mmHg 84%
    04:00 +11°C° 0 mm 1 m/s 736 mmHg 85%
    05:00 +11°C° 0 mm 1 m/s 736 mmHg 84%
    06:00 +11°C° 0 mm 1 m/s 736 mmHg 84%
    07:00 +12°C° 0 mm 1 m/s 736 mmHg 79%
    08:00 +14°C° 0 mm 1 m/s 736 mmHg 72%
    09:00 +16°C° 0 mm 1 m/s 736 mmHg 65%
    10:00 +18°C° 0 mm 0 m/s 736 mmHg 57%
    11:00 +21°C° 0 mm 1 m/s 736 mmHg 55%
    12:00 +22°C° 0 mm 1 m/s 736 mmHg 53%
    13:00 +23°C° 0 mm 1 m/s 735 mmHg 51%
    14:00 +22°C° 0 mm 1 m/s 735 mmHg 55%
    15:00 +21°C° 0 mm 1 m/s 735 mmHg 60%
    16:00 +20°C° 0 mm 1 m/s 735 mmHg 65%
    17:00 +18°C° 0 mm 1 m/s 735 mmHg 70%
    18:00 +16°C° 0 mm 1 m/s 735 mmHg 76%
    19:00 +14°C° 0 mm 1 m/s 735 mmHg 82%
    20:00 +13°C° 0 mm 1 m/s 735 mmHg 84%
    21:00 +13°C° 0 mm 1 m/s 735 mmHg 85%
    22:00 +13°C° 0 mm 1 m/s 735 mmHg 87%
    23:00 +12°C° 0 mm 1 m/s 735 mmHg 87%

    Demain, 18 Octobre, Jeudi

    Heure Température Précipitation Vent Pression Humidité
    00:00 +12°C° 0 mm 1 m/s 735 mmHg 88%
    01:00 +12°C° 0 mm 1 m/s 735 mmHg 89%
    02:00 +12°C° 0 mm 1 m/s 735 mmHg 89%
    03:00 +11°C° 0 mm 1 m/s 735 mmHg 89%
    04:00 +11°C° 0 mm 1 m/s 735 mmHg 90%
    05:00 +11°C° 0 mm 1 m/s 735 mmHg 90%
    06:00 +11°C° 0 mm 1 m/s 735 mmHg 89%
    07:00 +10°C° 0 mm 0 m/s 735 mmHg 89%
    08:00 +12°C° 0 mm 0 m/s 735 mmHg 81%
    09:00 +15°C° 0 mm 0 m/s 735 mmHg 73%
    10:00 +17°C° 0 mm 0 m/s 735 mmHg 66%
    11:00 +20°C° 0 mm 1 m/s 735 mmHg 63%
    12:00 +21°C° 0 mm 1 m/s 735 mmHg 60%
    13:00 +21°C° 0 mm 1 m/s 735 mmHg 57%
    14:00 +21°C° 0 mm 1 m/s 734 mmHg 61%
    15:00 +20°C° 0 mm 1 m/s 734 mmHg 65%
    16:00 +19°C° 0 mm 1 m/s 734 mmHg 69%
    17:00 +18°C° 0 mm 1 m/s 735 mmHg 75%
    18:00 +15°C° 0 mm 1 m/s 735 mmHg 81%
    19:00 +13°C° 0 mm 1 m/s 735 mmHg 86%
    20:00 +13°C° 0 mm 1 m/s 736 mmHg 88%
    21:00 +12°C° 0 mm 1 m/s 736 mmHg 89%
    22:00 +12°C° 0 mm 1 m/s 736 mmHg 91%
    23:00 +12°C° 0 mm 1 m/s 736 mmHg 91%

    Après-demain, 19 Octobre, Vendredi

    Heure Température Précipitation Vent Pression Humidité
    00:00 +11°C° 0 mm 1 m/s 736 mmHg 92%
    01:00 +11°C° 0 mm 1 m/s 736 mmHg 93%
    02:00 +11°C° 0 mm 1 m/s 736 mmHg 93%
    03:00 +11°C° 0 mm 1 m/s 736 mmHg 93%
    04:00 +10°C° 0 mm 1 m/s 736 mmHg 93%
    05:00 +10°C° 0 mm 1 m/s 737 mmHg 93%
    06:00 +10°C° 0 mm 1 m/s 737 mmHg 93%
    07:00 +10°C° 0 mm 1 m/s 737 mmHg 93%
    08:00 +12°C° 0 mm 1 m/s 737 mmHg 85%
    09:00 +14°C° 0 mm 1 m/s 737 mmHg 77%
    10:00 +18°C° 0 mm 1 m/s 737 mmHg 69%
    11:00 +18°C° 0 mm 1 m/s 737 mmHg 65%
    12:00 +19°C° 0 mm 1 m/s 737 mmHg 61%
    13:00 +20°C° 0 mm 1 m/s 737 mmHg 58%
    14:00 +20°C° 0 mm 1 m/s 737 mmHg 61%
    15:00 +19°C° 0 mm 1 m/s 737 mmHg 65%
    16:00 +19°C° 0 mm 1 m/s 737 mmHg 68%
    17:00 +16°C° 0 mm 1 m/s 737 mmHg 74%
    18:00 +14°C° 0 mm 1 m/s 738 mmHg 80%
    19:00 +12°C° 0 mm 1 m/s 738 mmHg 87%
    20:00 +12°C° 0 mm 1 m/s 739 mmHg 88%
    21:00 +12°C° 0 mm 1 m/s 739 mmHg 90%
    22:00 +11°C° 0 mm 1 m/s 739 mmHg 91%
    23:00 +11°C° 0 mm 1 m/s 739 mmHg 92%

    20 Octobre, Samedi

    Heure Température Précipitation Vent Pression Humidité
    00:00 +10°C° 0 mm 1 m/s 740 mmHg 92%
    01:00 +10°C° 0 mm 1 m/s 740 mmHg 93%
    02:00 +10°C° 0 mm 1 m/s 740 mmHg 93%
    03:00 +10°C° 0 mm 1 m/s 740 mmHg 93%
    04:00 +10°C° 0 mm 1 m/s 740 mmHg 93%
    05:00 +9°C° 0 mm 1 m/s 740 mmHg 93%
    06:00 +9°C° 0 mm 1 m/s 740 mmHg 92%
    07:00 +9°C° 0 mm 1 m/s 741 mmHg 92%
    08:00 +11°C° 0 mm 1 m/s 741 mmHg 84%
    09:00 +14°C° 0 mm 1 m/s 741 mmHg 77%
    10:00 +16°C° 0 mm 1 m/s 741 mmHg 69%
    11:00 +16°C° 0 mm 1 m/s 741 mmHg 66%
    12:00 +18°C° 0 mm 1 m/s 741 mmHg 64%
    13:00 +19°C° 0 mm 1 m/s 741 mmHg 62%
    14:00 +18°C° 0 mm 1 m/s 741 mmHg 66%
    15:00 +16°C° 0 mm 1 m/s 741 mmHg 70%
    16:00 +16°C° 0 mm 1 m/s 741 mmHg 74%
    17:00 +14°C° 0 mm 1 m/s 741 mmHg 79%
    18:00 +13°C° 0 mm 1 m/s 742 mmHg 84%
    19:00 +12°C° 0 mm 1 m/s 742 mmHg 89%
    20:00 +11°C° 0 mm 1 m/s 742 mmHg 90%
    21:00 +11°C° 0 mm 1 m/s 743 mmHg 91%
    22:00 +10°C° 0 mm 1 m/s 743 mmHg 92%
    23:00 +10°C° 0 mm 1 m/s 743 mmHg 92%

    21 Octobre, Dimanche

    Heure Température Précipitation Vent Pression Humidité
    00:00 +9°C° 0 mm 1 m/s 743 mmHg 91%
    01:00 +9°C° 0 mm 1 m/s 743 mmHg 91%
    02:00 +9°C° 0 mm 1 m/s 743 mmHg 91%
    03:00 +8°C° 0 mm 1 m/s 743 mmHg 91%
    04:00 +8°C° 0 mm 1 m/s 743 mmHg 91%
    05:00 +8°C° 0 mm 1 m/s 743 mmHg 90%
    06:00 +7°C° 0 mm 1 m/s 743 mmHg 90%
    07:00 +7°C° 0 mm 1 m/s 743 mmHg 89%
    08:00 +9°C° 0 mm 1 m/s 743 mmHg 79%
    09:00 +11°C° 0 mm 1 m/s 743 mmHg 69%
    10:00 +14°C° 0 mm 1 m/s 743 mmHg 59%
    11:00 +15°C° 0 mm 1 m/s 742 mmHg 54%
    12:00 +16°C° 0 mm 1 m/s 742 mmHg 49%
    13:00 +18°C° 0 mm 1 m/s 741 mmHg 43%
    14:00 +16°C° 0 mm 1 m/s 741 mmHg 47%
    15:00 +15°C° 0 mm 1 m/s 741 mmHg 51%
    16:00 +15°C° 0 mm 1 m/s 740 mmHg 55%
    17:00 +13°C° 0 mm 1 m/s 740 mmHg 60%
    18:00 +11°C° 0 mm 1 m/s 741 mmHg 64%
    19:00 +9°C° 0 mm 1 m/s 741 mmHg 69%
    20:00 +9°C° 0 mm 1 m/s 741 mmHg 70%
    21:00 +8°C° 0 mm 1 m/s 741 mmHg 72%
    22:00 +8°C° 0 mm 1 m/s 741 mmHg 73%
    23:00 +8°C° 0 mm 1 m/s 741 mmHg 74%

    22 Octobre, Lundi

    Heure Température Précipitation Vent Pression Humidité
    00:00 +7°C° 0 mm 1 m/s 741 mmHg 75%
    01:00 +7°C° 0 mm 1 m/s 741 mmHg 76%
    02:00 +7°C° 0 mm 1 m/s 740 mmHg 76%
    03:00 +7°C° 0 mm 1 m/s 740 mmHg 77%
    04:00 +6°C° 0 mm 1 m/s 740 mmHg 77%
    05:00 +6°C° 0 mm 1 m/s 741 mmHg 77%
    06:00 +6°C° 0 mm 1 m/s 741 mmHg 76%
    07:00 +6°C° 0 mm 1 m/s 741 mmHg 76%
    08:00 +9°C° 0 mm 1 m/s 741 mmHg 68%
    09:00 +10°C° 0 mm 0 m/s 741 mmHg 60%
    10:00 +13°C° 0 mm 0 m/s 741 mmHg 52%
    11:00 +15°C° 0 mm 1 m/s 740 mmHg 49%
    12:00 +15°C° 0 mm 1 m/s 740 mmHg 47%
    13:00 +16°C° 0 mm 1 m/s 740 mmHg 44%
    14:00 +16°C° 0 mm 1 m/s 740 mmHg 49%
    15:00 +15°C° 0 mm 1 m/s 739 mmHg 54%
    16:00 +14°C° 0 mm 1 m/s 739 mmHg 59%
    17:00 +12°C° 0 mm 1 m/s 740 mmHg 64%
    18:00 +11°C° 0 mm 1 m/s 740 mmHg 69%
    19:00 +9°C° 0 mm 1 m/s 740 mmHg 74%
    20:00 +9°C° 0 mm 1 m/s 741 mmHg 76%
    21:00 +8°C° 0 mm 1 m/s 741 mmHg 78%
    22:00 +8°C° 0 mm 1 m/s 741 mmHg 80%
    23:00 +7°C° 0 mm 1 m/s 741 mmHg 83%
    Voir plus